Location: Borovka
(49.7741°N, 14.5280°E)
Time: 14:13:01
(UTC+00:00)

Cosmos 1908 Rocket - Visible Passes

Search period start: 14 February 2026 00:00
Search period end: 24 February 2026 00:00
Orbit: 600 x 624 km, 82.5° (Epoch: 13 February)

Date Brightness Start Highest point End Pass type
(mag) Time Alt. Az. Time Alt. Az. Time Alt. Az.
14 Feb 4.1 04:06:53 10° S 04:11:09 58° E 04:15:28 10° NNE visible
15 Feb 6.7 02:47:41 10° ESE 02:49:14 12° E 02:50:47 10° ENE visible
15 Feb 3.4 04:21:53 10° S 04:26:14 84° W 04:30:40 10° N visible
16 Feb 6.2 03:00:59 10° SE 03:04:03 19° E 03:07:09 10° NE visible
16 Feb 3.7 04:37:09 10° SSW 04:41:24 50° WNW 04:45:42 10° N visible
17 Feb 5.4 03:15:09 10° SSE 03:18:58 30° E 03:22:50 10° NNE visible
17 Feb 4.3 04:52:45 10° SW 04:56:39 31° WNW 05:00:37 10° N visible
18 Feb 4.4 03:31:13 20° SSE 03:33:57 50° E 03:38:13 10° NNE visible
18 Feb 4.9 05:08:44 10° WSW 05:11:59 20° WNW 05:15:16 10° NNW visible
19 Feb 6.8 02:11:51 10° E 02:12:06 10° E 02:12:22 10° ENE visible
19 Feb 3.5 03:47:20 37° S 03:49:00 84° ESE 03:53:27 10° N visible
19 Feb 5.3 05:25:19 10° W 05:27:25 13° WNW 05:29:31 10° NNW visible
20 Feb 6.2 02:26:07 16° E 02:26:54 17° E 02:29:42 10° NE visible
20 Feb 3.5 04:03:10 46° SW 04:04:09 58° WNW 04:08:32 10° N visible
21 Feb 5.5 02:41:45 27° E 02:41:47 27° E 02:45:29 10° NNE visible
21 Feb 4.1 04:18:48 34° W 04:19:22 35° WNW 04:23:28 10° N visible
22 Feb 4.7 02:57:18 41° ENE 02:57:18 41° ENE 03:00:57 10° NNE visible
22 Feb 4.7 04:34:20 23° WNW 04:34:41 23° WNW 04:38:13 10° NNW visible
23 Feb 4.2 03:12:44 52° NNE 03:12:44 52° NNE 03:16:12 10° NNE visible
23 Feb 5.2 04:49:45 15° WNW 04:50:04 15° WNW 04:52:38 10° NNW visible
